• In Hungary
  • List of Countries
  • For 7 days
  • Water Temperature
  • Satellite Maps
  • Weather Map
  • News
  • Weather Widgets
  • user-avatar
    Login

    Hourly Weather Gorzyno

    Today, 24 November, Friday

    Time Temperature Precipitation Wind Pressure Humidity
    00:00 +5°C° 0 mm 6 mps 751 mmHg 81%
    01:00 +7°C° 0 mm 5 mps 751 mmHg 89%
    02:00 +7°C° 0 mm 5 mps 752 mmHg 90%
    03:00 +6°C° 0 mm 5 mps 752 mmHg 91%
    04:00 +6°C° 0 mm 5 mps 752 mmHg 93%
    05:00 +6°C° 0 mm 5 mps 753 mmHg 93%
    06:00 +6°C° 0 mm 4 mps 753 mmHg 94%
    07:00 +5°C° 0 mm 4 mps 753 mmHg 95%
    08:00 +6°C° 0 mm 4 mps 753 mmHg 94%
    09:00 +6°C° 0 mm 4 mps 753 mmHg 93%
    10:00 +6°C° 0 mm 4 mps 753 mmHg 92%
    11:00 +7°C° 0.1 mm 5 mps 752 mmHg 88%
    12:00 +8°C° 0.1 mm 6 mps 752 mmHg 84%
    13:00 +9°C° 0.1 mm 7 mps 751 mmHg 81%
    14:00 +9°C° 0.4 mm 7 mps 751 mmHg 80%
    15:00 +9°C° 0.4 mm 7 mps 750 mmHg 80%
    16:00 +9°C° 0.4 mm 7 mps 750 mmHg 79%
    17:00 +9°C° 0.1 mm 7 mps 750 mmHg 82%
    18:00 +9°C° 0.1 mm 6 mps 751 mmHg 85%
    19:00 +9°C° 0.1 mm 6 mps 751 mmHg 88%
    20:00 +8°C° 0 mm 5 mps 751 mmHg 87%
    21:00 +7°C° 0 mm 5 mps 752 mmHg 86%
    22:00 +6°C° 0 mm 4 mps 753 mmHg 86%
    23:00 +6°C° 0 mm 4 mps 753 mmHg 85%

    Tomorrow, 25 November, Saturday

    Time Temperature Precipitation Wind Pressure Humidity
    00:00 +7°C° 0 mm 3 mps 753 mmHg 85%
    01:00 +5°C° 0 mm 3 mps 754 mmHg 85%
    02:00 +5°C° 0 mm 3 mps 754 mmHg 86%
    03:00 +6°C° 0 mm 2 mps 754 mmHg 88%
    04:00 +6°C° 0 mm 2 mps 754 mmHg 90%
    05:00 +5°C° 0 mm 2 mps 753 mmHg 90%
    06:00 +5°C° 0 mm 2 mps 753 mmHg 90%
    07:00 +5°C° 0 mm 2 mps 753 mmHg 91%
    08:00 +5°C° 0.4 mm 2 mps 752 mmHg 90%
    09:00 +5°C° 0.4 mm 2 mps 752 mmHg 90%
    10:00 +5°C° 0.4 mm 2 mps 751 mmHg 90%
    11:00 +4°C° 2 mm 3 mps 751 mmHg 92%
    12:00 +4°C° 2 mm 3 mps 750 mmHg 94%
    13:00 +4°C° 2 mm 3 mps 749 mmHg 95%
    14:00 +5°C° 2.2 mm 3 mps 749 mmHg 95%
    15:00 +5°C° 2.2 mm 4 mps 749 mmHg 95%
    16:00 +5°C° 2.2 mm 4 mps 748 mmHg 95%
    17:00 +5°C° 0.9 mm 5 mps 748 mmHg 93%
    18:00 +4°C° 0.9 mm 6 mps 748 mmHg 92%
    19:00 +4°C° 0.9 mm 7 mps 748 mmHg 90%
    20:00 +4°C° 0.2 mm 7 mps 749 mmHg 86%
    21:00 +4°C° 0.2 mm 7 mps 749 mmHg 82%
    22:00 +4°C° 0.2 mm 7 mps 750 mmHg 79%
    23:00 +3°C° 0 mm 6 mps 751 mmHg 79%

    Day after tomorrow, 26 November, Sunday

    Time Temperature Precipitation Wind Pressure Humidity
    00:00 +3°C° 0 mm 6 mps 751 mmHg 79%
    01:00 +3°C° 0 mm 6 mps 752 mmHg 80%
    02:00 +2°C° 0 mm 6 mps 753 mmHg 81%
    03:00 +2°C° 0 mm 5 mps 753 mmHg 82%
    04:00 +2°C° 0 mm 5 mps 754 mmHg 83%
    05:00 +1°C° 0 mm 5 mps 754 mmHg 85%
    06:00 +1°C° 0 mm 6 mps 754 mmHg 87%
    07:00 +1°C° 0 mm 6 mps 755 mmHg 89%
    08:00 +1°C° 0 mm 6 mps 755 mmHg 86%
    09:00 0°C° 0 mm 7 mps 755 mmHg 83%
    10:00 0°C° 0 mm 7 mps 756 mmHg 80%
    11:00 +2°C° 0 mm 7 mps 756 mmHg 78%
    12:00 +2°C° 0 mm 7 mps 756 mmHg 76%
    13:00 +2°C° 0 mm 7 mps 756 mmHg 74%
    14:00 +2°C° 0 mm 7 mps 756 mmHg 76%
    15:00 0°C° 0 mm 7 mps 757 mmHg 78%
    16:00 0°C° 0 mm 7 mps 757 mmHg 80%
    17:00 0°C° 0 mm 7 mps 757 mmHg 80%
    18:00 0°C° 0 mm 7 mps 757 mmHg 81%
    19:00 -1°C° 0 mm 7 mps 757 mmHg 82%
    20:00 -1°C° 0 mm 8 mps 757 mmHg 83%
    21:00 -1°C° 0 mm 8 mps 757 mmHg 83%
    22:00 -1°C° 0 mm 8 mps 757 mmHg 84%
    23:00 -1°C° 0.1 mm 8 mps 757 mmHg 85%

    27 November, Monday

    Time Temperature Precipitation Wind Pressure Humidity
    00:00 -1°C° 0.1 mm 8 mps 757 mmHg 85%
    01:00 -1°C° 0.1 mm 9 mps 757 mmHg 86%
    02:00 -1°C° 0.2 mm 9 mps 757 mmHg 85%
    03:00 0°C° 0.2 mm 8 mps 757 mmHg 85%
    04:00 0°C° 0.2 mm 8 mps 757 mmHg 84%
    05:00 +1°C° 0.1 mm 8 mps 757 mmHg 84%
    06:00 +1°C° 0.1 mm 8 mps 758 mmHg 84%
    07:00 +2°C° 0.1 mm 7 mps 758 mmHg 85%
    08:00 +1°C° 0.1 mm 8 mps 758 mmHg 84%
    09:00 +1°C° 0.1 mm 8 mps 759 mmHg 83%
    10:00 +1°C° 0.1 mm 8 mps 759 mmHg 82%
    11:00 +1°C° 0.2 mm 8 mps 759 mmHg 81%
    12:00 +1°C° 0.2 mm 8 mps 759 mmHg 81%
    13:00 +1°C° 0.2 mm 8 mps 759 mmHg 80%
    14:00 +2°C° 0.1 mm 7 mps 759 mmHg 80%
    15:00 +2°C° 0.1 mm 7 mps 759 mmHg 80%
    16:00 +2°C° 0.1 mm 7 mps 759 mmHg 80%
    17:00 +2°C° 0 mm 7 mps 758 mmHg 80%
    18:00 0°C° 0 mm 7 mps 758 mmHg 80%
    19:00 0°C° 0 mm 7 mps 758 mmHg 80%
    20:00 0°C° 0.1 mm 8 mps 757 mmHg 80%
    21:00 0°C° 0.1 mm 8 mps 757 mmHg 80%
    22:00 0°C° 0.1 mm 8 mps 756 mmHg 81%
    23:00 +1°C° 0.3 mm 8 mps 756 mmHg 81%

    28 November, Tuesday

    Time Temperature Precipitation Wind Pressure Humidity
    00:00 +1°C° 0.3 mm 9 mps 755 mmHg 81%
    01:00 +1°C° 0.3 mm 9 mps 755 mmHg 81%
    02:00 +1°C° 0.4 mm 8 mps 755 mmHg 82%
    03:00 +1°C° 0.4 mm 8 mps 754 mmHg 83%
    04:00 +1°C° 0.4 mm 8 mps 754 mmHg 84%
    05:00 +1°C° 0.3 mm 8 mps 754 mmHg 84%
    06:00 +1°C° 0.3 mm 8 mps 754 mmHg 85%
    07:00 +2°C° 0.3 mm 7 mps 754 mmHg 85%
    08:00 +3°C° 0.2 mm 7 mps 753 mmHg 84%
    09:00 +2°C° 0.2 mm 8 mps 753 mmHg 84%
    10:00 +2°C° 0.2 mm 8 mps 753 mmHg 83%
    11:00 +3°C° 0.1 mm 7 mps 753 mmHg 82%
    12:00 +3°C° 0.1 mm 7 mps 753 mmHg 82%
    13:00 +3°C° 0.1 mm 7 mps 752 mmHg 81%
    14:00 +3°C° 0.1 mm 7 mps 752 mmHg 81%
    15:00 +3°C° 0.1 mm 7 mps 752 mmHg 80%
    16:00 +2°C° 0.1 mm 8 mps 751 mmHg 80%
    17:00 +2°C° 0.1 mm 8 mps 751 mmHg 78%
    18:00 +2°C° 0.1 mm 8 mps 751 mmHg 75%
    19:00 +2°C° 0.1 mm 8 mps 750 mmHg 73%
    20:00 +2°C° 0 mm 8 mps 750 mmHg 69%
    21:00 +1°C° 0 mm 8 mps 749 mmHg 66%
    22:00 +1°C° 0 mm 8 mps 749 mmHg 62%
    23:00 +1°C° 0 mm 8 mps 749 mmHg 63%

    29 November, Wednesday

    Time Temperature Precipitation Wind Pressure Humidity
    00:00 +1°C° 0 mm 8 mps 748 mmHg 63%
    01:00 +1°C° 0 mm 8 mps 748 mmHg 63%
    02:00 +1°C° 0 mm 8 mps 748 mmHg 64%
    03:00 +1°C° 0 mm 8 mps 747 mmHg 64%
    04:00 0°C° 0 mm 8 mps 747 mmHg 65%
    05:00 0°C° 0 mm 8 mps 747 mmHg 67%
    06:00 0°C° 0 mm 8 mps 747 mmHg 69%
    07:00 0°C° 0 mm 8 mps 747 mmHg 71%
    08:00 0°C° 0 mm 8 mps 747 mmHg 71%
    09:00 0°C° 0 mm 8 mps 747 mmHg 70%
    10:00 +1°C° 0 mm 8 mps 747 mmHg 70%
    11:00 +1°C° 0 mm 8 mps 746 mmHg 70%
    12:00 +1°C° 0 mm 8 mps 746 mmHg 71%
    13:00 +2°C° 0 mm 8 mps 746 mmHg 71%
    14:00 +2°C° 0 mm 8 mps 746 mmHg 73%
    15:00 +2°C° 0 mm 8 mps 746 mmHg 74%
    16:00 +1°C° 0 mm 8 mps 746 mmHg 75%
    17:00 +1°C° 0 mm 8 mps 746 mmHg 77%
    18:00 +1°C° 0 mm 8 mps 746 mmHg 79%
    19:00 +1°C° 0 mm 8 mps 747 mmHg 80%
    20:00 +2°C° 0 mm 7 mps 747 mmHg 82%
    21:00 +2°C° 0 mm 7 mps 747 mmHg 84%
    22:00 +2°C° 0 mm 7 mps 747 mmHg 86%
    23:00 +2°C° 0 mm 7 mps 748 mmHg 87%
    Show more